• în România
  • Lista ţărilor
  • Pe 7 zile
  • Temperatura apei
  • Hartă satelitară
  • Meteo pe hartă
  • Widget-uri
  • user-avatar
    Intrare

    Meteo pe oră la Graz

    Astăzi, 23 Mai, Marţi

    Timp Temperatura Precipitaţii Vânt Presiune Umiditate
    00:00 +14°C° 0,7 mm 1 m/s 724 mmHg 94%
    01:00 +13°C° 0 mm 1 m/s 724 mmHg 95%
    02:00 +12°C° 0,2 mm 1 m/s 724 mmHg 95%
    03:00 +12°C° 0,2 mm 1 m/s 724 mmHg 94%
    04:00 +12°C° 0,2 mm 1 m/s 724 mmHg 94%
    05:00 +14°C° 0,1 mm 1 m/s 724 mmHg 91%
    06:00 +16°C° 0,1 mm 1 m/s 725 mmHg 87%
    07:00 +16°C° 0,1 mm 0 m/s 725 mmHg 84%
    08:00 +18°C° 0,4 mm 0 m/s 725 mmHg 74%
    09:00 +22°C° 0,4 mm 1 m/s 725 mmHg 64%
    10:00 +24°C° 0,4 mm 1 m/s 725 mmHg 55%
    11:00 +24°C° 0,4 mm 1 m/s 725 mmHg 53%
    12:00 +25°C° 0,4 mm 1 m/s 725 mmHg 51%
    13:00 +25°C° 0,4 mm 1 m/s 725 mmHg 49%
    14:00 +25°C° 0,5 mm 1 m/s 725 mmHg 51%
    15:00 +25°C° 0,5 mm 1 m/s 725 mmHg 53%
    16:00 +24°C° 0,5 mm 1 m/s 725 mmHg 56%
    17:00 +22°C° 0,4 mm 1 m/s 724 mmHg 64%
    18:00 +20°C° 0,4 mm 1 m/s 724 mmHg 73%
    19:00 +18°C° 0,4 mm 1 m/s 724 mmHg 82%
    20:00 +16°C° 0,1 mm 1 m/s 725 mmHg 84%
    21:00 +15°C° 0,1 mm 1 m/s 725 mmHg 86%
    22:00 +14°C° 0,1 mm 1 m/s 725 mmHg 89%
    23:00 +14°C° 0 mm 1 m/s 725 mmHg 88%

    Mâine, 24 Mai, Miercuri

    Timp Temperatura Precipitaţii Vânt Presiune Umiditate
    00:00 +14°C° 0 mm 2 m/s 725 mmHg 88%
    01:00 +14°C° 0 mm 2 m/s 725 mmHg 88%
    02:00 +14°C° 0 mm 2 m/s 725 mmHg 88%
    03:00 +14°C° 0 mm 1 m/s 725 mmHg 88%
    04:00 +14°C° 0 mm 1 m/s 724 mmHg 88%
    05:00 +15°C° 0,1 mm 1 m/s 725 mmHg 86%
    06:00 +16°C° 0,1 mm 1 m/s 725 mmHg 85%
    07:00 +16°C° 0,1 mm 1 m/s 725 mmHg 83%
    08:00 +18°C° 0,2 mm 2 m/s 725 mmHg 78%
    09:00 +19°C° 0,2 mm 2 m/s 726 mmHg 73%
    10:00 +20°C° 0,2 mm 2 m/s 726 mmHg 68%
    11:00 +20°C° 0,2 mm 3 m/s 726 mmHg 61%
    12:00 +21°C° 0,2 mm 3 m/s 726 mmHg 54%
    13:00 +22°C° 0,2 mm 4 m/s 726 mmHg 47%
    14:00 +22°C° 0,3 mm 4 m/s 726 mmHg 47%
    15:00 +21°C° 0,3 mm 4 m/s 726 mmHg 47%
    16:00 +21°C° 0,3 mm 4 m/s 726 mmHg 47%
    17:00 +19°C° 0,1 mm 3 m/s 726 mmHg 55%
    18:00 +18°C° 0,1 mm 3 m/s 726 mmHg 62%
    19:00 +16°C° 0,1 mm 2 m/s 726 mmHg 69%
    20:00 +15°C° 0 mm 2 m/s 726 mmHg 73%
    21:00 +13°C° 0 mm 2 m/s 727 mmHg 77%
    22:00 +12°C° 0 mm 1 m/s 727 mmHg 81%
    23:00 +12°C° 0 mm 1 m/s 727 mmHg 82%

    Poimâine, 25 Mai, Joi

    Timp Temperatura Precipitaţii Vânt Presiune Umiditate
    00:00 +12°C° 0 mm 1 m/s 727 mmHg 83%
    01:00 +12°C° 0 mm 1 m/s 727 mmHg 83%
    02:00 +12°C° 0 mm 1 m/s 727 mmHg 84%
    03:00 +12°C° 0 mm 1 m/s 726 mmHg 85%
    04:00 +12°C° 0 mm 1 m/s 726 mmHg 86%
    05:00 +12°C° 0,1 mm 1 m/s 726 mmHg 86%
    06:00 +13°C° 0,1 mm 1 m/s 726 mmHg 86%
    07:00 +13°C° 0,1 mm 1 m/s 726 mmHg 86%
    08:00 +14°C° 0,1 mm 1 m/s 726 mmHg 83%
    09:00 +15°C° 0,1 mm 1 m/s 726 mmHg 79%
    10:00 +16°C° 0,1 mm 1 m/s 726 mmHg 75%
    11:00 +18°C° 0 mm 1 m/s 726 mmHg 74%
    12:00 +18°C° 0 mm 1 m/s 725 mmHg 72%
    13:00 +19°C° 0 mm 1 m/s 725 mmHg 71%
    14:00 +19°C° 0,1 mm 1 m/s 725 mmHg 71%
    15:00 +19°C° 0,1 mm 1 m/s 725 mmHg 71%
    16:00 +18°C° 0,1 mm 2 m/s 724 mmHg 71%
    17:00 +18°C° 0,1 mm 1 m/s 724 mmHg 76%
    18:00 +16°C° 0,1 mm 1 m/s 724 mmHg 81%
    19:00 +16°C° 0,1 mm 1 m/s 724 mmHg 86%
    20:00 +14°C° 0,1 mm 1 m/s 724 mmHg 88%
    21:00 +13°C° 0,1 mm 1 m/s 724 mmHg 91%
    22:00 +12°C° 0,1 mm 1 m/s 725 mmHg 93%
    23:00 +13°C° 0,3 mm 1 m/s 724 mmHg 93%

    26 Mai, Vineri

    Timp Temperatura Precipitaţii Vânt Presiune Umiditate
    00:00 +13°C° 0,3 mm 1 m/s 724 mmHg 94%
    01:00 +13°C° 0,3 mm 1 m/s 724 mmHg 94%
    02:00 +13°C° 0,3 mm 1 m/s 724 mmHg 94%
    03:00 +13°C° 0,3 mm 1 m/s 724 mmHg 95%
    04:00 +13°C° 0,3 mm 1 m/s 724 mmHg 96%
    05:00 +13°C° 0,4 mm 1 m/s 724 mmHg 94%
    06:00 +14°C° 0,4 mm 1 m/s 724 mmHg 93%
    07:00 +14°C° 0,4 mm 1 m/s 724 mmHg 91%
    08:00 +15°C° 0,3 mm 1 m/s 724 mmHg 87%
    09:00 +16°C° 0,3 mm 1 m/s 724 mmHg 83%
    10:00 +17°C° 0,3 mm 2 m/s 724 mmHg 80%
    11:00 +18°C° 0,4 mm 2 m/s 724 mmHg 75%
    12:00 +18°C° 0,4 mm 2 m/s 724 mmHg 70%
    13:00 +19°C° 0,4 mm 3 m/s 723 mmHg 66%
    14:00 +19°C° 0,2 mm 3 m/s 723 mmHg 64%
    15:00 +19°C° 0,2 mm 3 m/s 723 mmHg 62%
    16:00 +19°C° 0,2 mm 3 m/s 723 mmHg 60%
    17:00 +18°C° 0,1 mm 2 m/s 723 mmHg 66%
    18:00 +17°C° 0,1 mm 2 m/s 723 mmHg 73%
    19:00 +15°C° 0,1 mm 1 m/s 724 mmHg 79%
    20:00 +14°C° 0 mm 1 m/s 724 mmHg 83%
    21:00 +13°C° 0 mm 1 m/s 724 mmHg 87%
    22:00 +11°C° 0 mm 1 m/s 724 mmHg 90%
    23:00 +11°C° 0 mm 1 m/s 724 mmHg 91%

    27 Mai, Sâmbătă

    Timp Temperatura Precipitaţii Vânt Presiune Umiditate
    00:00 +11°C° 0 mm 1 m/s 724 mmHg 92%
    01:00 +11°C° 0 mm 1 m/s 724 mmHg 93%
    02:00 +10°C° 0 mm 1 m/s 724 mmHg 93%
    03:00 +10°C° 0 mm 1 m/s 724 mmHg 93%
    04:00 +9°C° 0 mm 2 m/s 724 mmHg 93%
    05:00 +10°C° 0 mm 2 m/s 724 mmHg 87%
    06:00 +13°C° 0 mm 2 m/s 724 mmHg 81%
    07:00 +14°C° 0 mm 2 m/s 725 mmHg 75%
    08:00 +16°C° 0 mm 2 m/s 725 mmHg 67%
    09:00 +17°C° 0 mm 3 m/s 725 mmHg 58%
    10:00 +19°C° 0 mm 3 m/s 725 mmHg 49%
    11:00 +19°C° 0 mm 3 m/s 725 mmHg 47%
    12:00 +20°C° 0 mm 3 m/s 725 mmHg 45%
    13:00 +21°C° 0 mm 4 m/s 725 mmHg 43%
    14:00 +20°C° 0 mm 4 m/s 725 mmHg 45%
    15:00 +20°C° 0 mm 4 m/s 725 mmHg 47%
    16:00 +20°C° 0 mm 4 m/s 725 mmHg 49%
    17:00 +19°C° 0 mm 3 m/s 725 mmHg 58%
    18:00 +17°C° 0 mm 2 m/s 725 mmHg 67%
    19:00 +15°C° 0 mm 2 m/s 726 mmHg 77%
    20:00 +14°C° 0 mm 2 m/s 726 mmHg 82%
    21:00 +12°C° 0 mm 2 m/s 726 mmHg 87%
    22:00 +10°C° 0 mm 1 m/s 727 mmHg 92%
    23:00 +10°C° 0 mm 1 m/s 727 mmHg 91%

    28 Mai, Duminică

    Timp Temperatura Precipitaţii Vânt Presiune Umiditate
    00:00 +9°C° 0 mm 2 m/s 727 mmHg 91%
    01:00 +9°C° 0 mm 2 m/s 727 mmHg 90%
    02:00 +9°C° 0 mm 2 m/s 727 mmHg 90%
    03:00 +10°C° 0 mm 1 m/s 727 mmHg 90%
    04:00 +9°C° 0 mm 1 m/s 727 mmHg 90%
    05:00 +12°C° 0 mm 1 m/s 728 mmHg 83%
    06:00 +14°C° 0 mm 1 m/s 728 mmHg 75%
    07:00 +16°C° 0 mm 1 m/s 728 mmHg 68%
    08:00 +19°C° 0 mm 1 m/s 729 mmHg 61%
    09:00 +21°C° 0 mm 1 m/s 729 mmHg 55%
    10:00 +23°C° 0 mm 1 m/s 729 mmHg 49%
    11:00 +23°C° 0 mm 2 m/s 729 mmHg 48%
    12:00 +24°C° 0 mm 2 m/s 729 mmHg 47%
    13:00 +24°C° 0 mm 2 m/s 729 mmHg 46%
    14:00 +24°C° 0 mm 2 m/s 728 mmHg 48%
    15:00 +24°C° 0 mm 2 m/s 728 mmHg 50%
    16:00 +24°C° 0 mm 2 m/s 728 mmHg 53%
    17:00 +21°C° 0 mm 2 m/s 728 mmHg 62%
    18:00 +20°C° 0 mm 1 m/s 728 mmHg 71%
    19:00 +19°C° 0 mm 1 m/s 728 mmHg 81%
    20:00 +16°C° 0 mm 1 m/s 728 mmHg 85%
    21:00 +14°C° 0 mm 1 m/s 728 mmHg 89%
    22:00 +11°C° 0 mm 0 m/s 729 mmHg 93%
    23:00 +10°C° 0 mm 0 m/s 728 mmHg 93%
    Arată mai mult